Location: Arboucave
(43.6130°N, 0.4343°W)
Time: 13:12:43
(UTC+00:00)

Cosmos 1400 Rocket - Pass Details

Date: 17 November 2025
Orbit: 476 x 514 km, 81.1° (Epoch: 11 December)

Event Time Altitude Azimuth Distance (km) Brightness Sun altitude
Rises 17:23:49 0° 151° (SSE) 2,619 6.2 -9.1°
Reaches altitude 10° 17:26:28 10° 132° (SE) 1,735 5.1 -9.5°
Maximum altitude 17:29:02 17° 89° (E) 1,332 4.2 -10.0°
Enters shadow 17:30:39 14° 60° (ENE) 1,504 4.4 -10.3°
